Regional Weather Roundup
Issued by NWS Kansas City/Pleasant Hill, MO

Home | Current Version | Previous Version | Text Only | Print | Product List | Glossary On
Versions: 1 2 3 4 5 6 7 8 9 10 11 12 13 14 15 16 17 18 19 20 21 22 23 24 25 26 27 28 29 30 31 32 33 34 35 36 37 38 39 40 41 42 43 44 45 46 47 48 49 50
483
ASUS43 KEAX 222010
RWREAX

WEATHER ROUNDUP FOR EASTERN KANSAS AND NORTHWEST MISSOURI
NATIONAL WEATHER SERVICE KANSAS CITY/PLEASANT HILL MO
300 PM CDT FRI SEP 22 2017

KSZ040-057-103>105-MOZ028-029-037-043-222100-
...KANSAS CITY METROPOLITAN AREA...

CITY           SKY/WX    TMP DP  RH WIND       PRES   REMARKS
K.C. INTL      MOSUNNY   88  72  58 S14G28    29.94F HX  94
K.C. DOWNTOWN  MOSUNNY   91  72  53 S13       29.93F HX  98
LEES SUMMIT    MOSUNNY   88  70  55 S17       29.97S HX  93
OLATHE - IXD   MOSUNNY   88  70  55 S17G24    29.96F HX  93
OLATHE - OJC   SUNNY     86  70  58 S15       29.96F HX  90
LAWRENCE       SUNNY     90  70  51 SE20G26   29.92F HX  95

$$

MOZ001>008-011>017-020>025-030>033-038>040-044>046-053-054-222100-
...NORTHERN AND CENTRAL MISSOURI...

CITY           SKY/WX    TMP DP  RH WIND       PRES   REMARKS
ST. JOSEPH     SUNNY     92  71  50 S20       29.91S HX  98
MOSBY          PTCLDY    90  66  45 S10G16    29.94F HX  92
WARRENSBURG    SUNNY     88  66  48 S13G21    29.97F HX  90
WHITEMAN AFB   MOSUNNY   89  70  53 S13       29.97F HX  93
CLINTON        MOSUNNY   90  72  55 S9G16     29.99F HX  96
SEDALIA        MOSUNNY   91  71  51 S9        30.00F HX  97
WARSAW         NOT AVBL
CHILLICOTHE      N/A     91  69  48 S8G22     29.96F HX  96
KIRKSVILLE     SUNNY     91  68  46 S13G21    29.99F HX  95

$$

MOZ041-047>049-056>058-063>065-088>090-097-222100-
...EASTERN AND SOUTHERN MISSOURI...

CITY           SKY/WX    TMP DP  RH WIND       PRES   REMARKS
ST. LOUIS INTL MOSUNNY   95  61  32 SE13      30.01F HX  95
SPIRIT OF STL  MOSUNNY   91  65  41 E6        29.99F HX  93
COLUMBIA       SUNNY     91  65  41 S10       30.01F HX  93
JEFFERSON CITY SUNNY     90  65  43 SE9       29.99F HX  92
ROLLA          MOSUNNY   93  66  40 SW9G20    30.03F HX  96
OSAGE BEACH    MOSUNNY   88  68  51 S8        30.01F HX  91
SPRINGFIELD    SUNNY     90  66  45 S12       30.01F HX  92
BRANSON        MOSUNNY   91  63  38 S8        30.04F HX  92
JOPLIN         MOSUNNY   87  70  56 S13       29.99F HX  92
WEST PLAINS    SUNNY     88  63  43 S7        30.05F

$$

IAZ060-094-KSZ022-034>040-054-083-096-NEZ052-066-093-222100-
...KANSAS...SOUTHEAST NEBRASKA AND IOWA...

CITY           SKY/WX    TMP DP  RH WIND       PRES   REMARKS
TOPEKA         SUNNY     91  71  51 S15       29.90F HX  97
MANHATTAN      MOSUNNY   97  68  38 S16G26    29.84F HX 102
EMPORIA        SUNNY     89  68  49 S16G31    29.91F HX  93
CHANUTE        MOSUNNY   89  68  49 S17G26    29.96S HX  93
WICHITA        MOSUNNY   92  69  47 S24G36    29.87F HX  97
OMAHA          MOSUNNY   95  70  44 S23G33    29.81F HX 101
LINCOLN        SUNNY     96  64  34 S24G33    29.80S HX  98
FALLS CITY     SUNNY     90  70  51 S20G26    29.87F HX  95
LAMONI         SUNNY     90  70  51 S15G24    29.93F HX  95
DES MOINES     MOSUNNY   91  69  48 S21G29    29.90F HX  96

$$





USA.gov is the U.S. government's official web portal to all federal, state and local government web resources and services.